Regional Weather Roundup
Issued by NWS Grand Forks, ND

Home | Current Version | Previous Version | Graphics & Text | Print | Product List | Glossary On
Versions: 1 2 3 4 5 6 7 8 9 10 11 12 13 14 15 16 17 18 19 20 21 22 23 24 25 26 27 28 29 30 31 32 33 34 35 36 37 38 39 40 41 42 43 44 45 46 47 48 49 50
000
ASUS43 KFGF 231810
RWRFGF
PRAIRIE TO PINES  WEATHER ROUNDUP
NATIONAL WEATHER SERVICE EASTERN NORTH DAKOTA/GRAND FORKS ND
1200 PM CST SUN NOV 23 2014

 **SATELLITE DATA USED TO AUGMENT SKY COVER AT AUTOMATED STATIONS**
 *****  WEATHER ACROSS EASTERN NORTH DAKOTA  *****

CITY           SKY/WX    TMP DP  RH WIND       PRES   REMARKS
GRAND FORKS    NOT AVBL
GRAND FRKS AFB CLOUDY    41  32  70 NW20G26   29.42R
GRAND FRKS NWS   N/A     41 N/A N/A W12         N/A
DEVILS LAKE    CLOUDY    30  16  55 W20       29.43R WCI  18
6HR MIN TEMP:  30; 6HR MAX TEMP:  37;

FARGO          CLOUDY    44  35  70 W12       29.44S
WAHPETON ARPT  CLOUDY    37  34  87 W10       29.47S
$$

 ***** WEATHER ACROSS CENTRAL AND WESTERN NORTH DAKOTA  *****

CITY           SKY/WX    TMP DP  RH WIND       PRES   REMARKS
BISMARCK       CLOUDY    27  16  63 NW21G35   29.58R WCI  13
6HR MIN TEMP:  27; 6HR MAX TEMP:  39;

MINOT          LGT SNOW  20  14  77 NW21G31   29.56R WCI   4
6HR MIN TEMP:  20; 6HR MAX TEMP:  37; 6HR PCP: TRACE;

JAMESTOWN      CLOUDY    32  21  64 NW22      29.48R WCI  19
6HR MIN TEMP:  32; 6HR MAX TEMP:  40;

MINOT AFB      LGT SNOW  21  18  86 NW23      29.55R FOG     WCI   5
GARRISON         N/A     22  15  75 NW31G40   29.56R WCI   4
WILLISTON      LGT SNOW  18  11  74 NW24G32   29.72R WCI   0
6HR MIN TEMP:  18; 6HR MAX TEMP:  24; 6HR PCP:  0.01;

DICKINSON      CLOUDY    24  16  71 NW31G44   29.61R WCI   7
6HR MIN TEMP:  24; 6HR MAX TEMP:  35; 6HR PCP: TRACE;

HETTINGER      CLOUDY    27  19  72 NW39G52   29.63R WCI   9
6HR MIN TEMP:  27; 6HR MAX TEMP:  36; 6HR PCP: TRACE;

$$

 *****  OTHER AIRPORT OBSERVATIONS IN OUR AREA  *****

CITY           SKY/WX    TMP DP  RH WIND       PRES   REMARKS
WALHALLA         N/A     23  23 100 NW16G24   29.45R WCI  10
GRAFTON AIRPOR CLOUDY    32  28  86 N12       29.42R WCI  23
VALLEY CITY AR FLURRIES  32  25  74 NW20G29   29.47R WCI  20
CANDO          CLOUDY    30  19  64 NW13      29.44R WCI  20
CAVALIER APRT  CLOUDY    27  27 100 N14G21    29.43R FOG     WCI  15
GWINNER        CLOUDY    39  32  75 W24G35    29.48F
SHEYENNE NWR     N/A     42  34  74 W13       29.95
ROLLA          LGT SNOW  19  19 100 N20G26    29.46R WCI   4
 ***** THE ABOVE OBSERVATIONS ARE NON NWS ARE NOT QUALITY
       CONTROLLED AND MAY MIS-REPORT RAIN FOR SNOW...
$$

  *****  WEATHER ACROSS NORTHERN MINNESOTA  *****

CITY           SKY/WX    TMP DP  RH WIND       PRES   REMARKS
FLAG ISLAND    FOG       34  32  93 SE8       29.37F VSB 1/4
WARROAD        CLOUDY    36  32  87 SW5       29.39S FOG
ROSEAU         DRIZZLE   37  32  81 S6        29.38S
HALLOCK        CLOUDY    30  28  93 N14       29.40F WCI  20
THF RVR FALLS  CLOUDY    37  34  87 SW9       29.40S
6HR MIN TEMP:  32; 6HR MAX TEMP:  37;

BAUDETTE       CLOUDY    35  33  92 S6        29.38S FOG
6HR MIN TEMP:  33; 6HR MAX TEMP:  35;

WASKISH        CLOUDY    36  36 100 SW3       29.39F FOG
CROOKSTON      PTSUNNY   41  36  81 SW7       29.41S
STEPHEN NDAWN    N/A     36  30  80 N10         N/A
GREENBUSH NDAW   N/A     37  32  81 W8          N/A
$$
  *****  WEATHER ACROSS CENTRAL AND WEST MINNESOTA  *****

CITY           SKY/WX    TMP DP  RH WIND       PRES   REMARKS
FOSSTON        CLOUDY    36  32  87 S8        29.41F
BEMIDJI        CLOUDY    36  33  88 S3        29.40F
PARK RAPIDS    CLOUDY    40  35  83 W6        29.41F
6HR MIN TEMP:  31; 6HR MAX TEMP:  40; 6HR PCP: TRACE;

ELBOW LAKE       N/A     36  36  99 W7        29.47S
WADENA         CLOUDY    37  34  87 W5        29.43F
DETROIT LAKES  CLOUDY    37  34  87 W3        29.44S
MOORHEAD       CLOUDY    43  39  87 W12       29.45S
FERGUS FALLS   CLOUDY    37  37 100 SW7       29.48F
MORRIS MN        N/A     37  36  93 W10       29.47S
STAPLES        CLOUDY    37  36  93 W5        29.44S
$$
  *****  WEATHER ELSEWHERE ACROSS MINNESOTA  *****

CITY           SKY/WX    TMP DP  RH WIND       PRES   REMARKS
DULUTH         CLOUDY    39  37  92 W5        29.40F FOG
6HR MIN TEMP:  35; 6HR MAX TEMP:  39;

INTRNTL FALLS  CLOUDY    36  33  89 S3        29.41R
6HR MIN TEMP:  32; 6HR MAX TEMP:  36;

ELY            CLOUDY    37  37 100 SW3       29.39S FOG
CLOQUET        CLOUDY    39  37  93 SW3       29.41S FOG
WHEATON        CLOUDY    37  34  87 W10       29.50F
BRAINERD       LGT RAIN  36  35  96 W5        29.43F FOG
6HR MIN TEMP:  33; 6HR MAX TEMP:  36; 6HR PCP: TRACE;

HIBBING        CLOUDY    37  34  89 VRB3      29.39F FOG
ALEXANDRIA     CLOUDY    37  33  85 W10       29.46S
6HR MIN TEMP:  34; 6HR MAX TEMP:  38; 6HR PCP: TRACE;

SAINT CLOUD    CLOUDY    38  34  85 NW8       29.42F
6HR MIN TEMP:  36; 6HR MAX TEMP:  40; 6HR PCP:  0.01;

MINNEAPOLIS    CLOUDY    47  46  97 NW7       29.42F FOG
6HR MIN TEMP:  47; 6HR MAX TEMP:  50; 6HR PCP: TRACE;

$$

  *****  WEATHER ACROSS SOUTH DAKOTA  *****

CITY           SKY/WX    TMP DP  RH WIND       PRES   REMARKS
SIOUX FALLS    CLOUDY    40  36  86 NW21      29.53F
6HR MIN TEMP:  39; 6HR MAX TEMP:  42; 6HR PCP:  0.13;

BROOKINGS      NOT AVBL
WATERTOWN      CLOUDY    38  31  76 W15G22    29.51F
6HR MIN TEMP:  37; 6HR MAX TEMP:  39;

HURON          CLOUDY    40  32  73 W17       29.58S
6HR MIN TEMP:  37; 6HR MAX TEMP:  41;

SISSETON         N/A     40  33  76 NW21      29.47F
ABERDEEN       CLOUDY    39  31  72 W15G23    29.55S
6HR MIN TEMP:  38; 6HR MAX TEMP:  40;

MITCHELL       NOT AVBL
PIERRE         CLOUDY    41  29  62 NW18      29.62F
6HR MIN TEMP:  36; 6HR MAX TEMP:  42;

MOBRIDGE       PTSUNNY   38  26  62 NW30G38   29.58R
RAPID CITY     SUNNY     43  19  38 NW36G55   29.70R
6HR MIN TEMP:  35; 6HR MAX TEMP:  43;

$$

  *****  SOME WEATHER IN NEARBY STATES *****

CITY           SKY/WX    TMP DP  RH WIND       PRES   REMARKS
GLASGOW MT     CLOUDY    26  16  65 NW26G36   29.82R WCI  10
6HR MIN TEMP:  24; 6HR MAX TEMP:  28; 6HR PCP:  0.01;

GREAT FALLS MT SUNNY     41  17  38 W26G32    29.90S
6HR MIN TEMP:  24; 6HR MAX TEMP:  41;

CHEYENNE WY    MOSUNNY   35  10  35 N33G45    29.77S WCI  21
6HR MIN TEMP:  27; 6HR MAX TEMP:  36;

SCOTTSBLUFF NE SUNNY     44  15  31 N29G41    29.78S
6HR MIN TEMP:  24; 6HR MAX TEMP:  44;

OMAHA NE       CLOUDY    49  40  71 N18G32    29.47F
6HR MIN TEMP:  48; 6HR MAX TEMP:  54; 6HR PCP: TRACE;

DES MOINES IA  LGT RAIN  53  51  93 CALM      29.42F FOG
6HR MIN TEMP:  53; 6HR MAX TEMP:  53; 6HR PCP:  0.02;

DAVENPORT IA   LGT RAIN  50  48  93 SE13      29.50F FOG
6HR MIN TEMP:  49; 6HR MAX TEMP:  50; 6HR PCP:  0.74;

CHICAGO IL     CLOUDY    52  47  83 S13       29.61F
6HR MIN TEMP:  48; 6HR MAX TEMP:  52; 6HR PCP:  0.02;

EAU CLAIRE WI  CLOUDY    49  48  97 S7        29.44F FOG
6HR MIN TEMP:  46; 6HR MAX TEMP:  49;

LA CROSSE WI   CLOUDY    51  49  92 S7        29.47F FOG
6HR MIN TEMP:  50; 6HR MAX TEMP:  51; 6HR PCP:  0.02;

$$

  *****  SOME NATIONAL WEATHER *****

CITY           SKY/WX    TMP DP  RH WIND       PRES   REMARKS
LA GUARDIA NY  PTSUNNY   54  25  32 CALM      30.14F
6HR MIN TEMP:  44; 6HR MAX TEMP:  54;

RALEIGH NC     LGT RAIN  53  46  77 SE3       30.11F
6HR MIN TEMP:  40; 6HR MAX TEMP:  54; 6HR PCP: TRACE;

ATLANTA GA     HVY RAIN  52  50  93 E18       29.85F VSB 3/4
6HR MIN TEMP:  49; 6HR MAX TEMP:  52; 6HR PCP:  0.89;

NEW ORLEANS LA PTSUNNY   70  60  70 SW18      29.69S
6HR MIN TEMP:  63; 6HR MAX TEMP:  70; 6HR PCP:  0.35;

OKLAHOMA CITY  PTSUNNY   59  48  67 SW14      29.37F
6HR MIN TEMP:  54; 6HR MAX TEMP:  60;

ALBUQUERQUE NM PTSUNNY   46  21  37 NW29G39   29.89F
6HR MIN TEMP:  42; 6HR MAX TEMP:  47;

SALT LAKE CITY MOSUNNY   37  24  59 NW13      30.24R
6HR MIN TEMP:  31; 6HR MAX TEMP:  38; 6HR PCP:  0.01;

LOS ANGELES CA PTSUNNY   65  53  65 SE3       30.14S
6HR MIN TEMP:  57; 6HR MAX TEMP:  67;

BOISE ID       SUNNY     40  27  59 CALM      30.33R


USA.gov is the U.S. government's official web portal to all federal, state and local government web resources and services.